ONEWEB-0090, 45427

Orbit data source: Space-Track

ONEWEB-0090, 45427 is a payload satellite in LEO that was launched on Sat, 21 Mar 2020 UTC via a SOYUZ-2-1B launch vehicle from the Tyuratam Missile And Space Complex (TTMTR). Payload-class satellites include a variety of spacecraft equipped with specific instruments for various scientific and technological missions. These include communications satellites like Starlink; space stations such as the ISS; scientific satellites like the Hubble; Earth observation satellites from companies like Planet Labs, Umbra, and HawkEye 360; GPS; miniature CubeSats for education and research; and military/defense satellites.

Loading next visibility...
Identifier
45427, 2020-020D
Orbit
LEO
Last TLE update
14 hours ago
Origin
Manufacturer
One Web
Mission
Operational Commercial Communications
Bus & Motor
ARROW, Unknown motor
Mass
148 kg wet, ~140 kg dry
Launch date (UTC)
2020-03-21 (5 years ago)
Launch vehicle
SOYUZ-2-1B
Launch site
Tyuratam Missile And Space Complex (TTMTR)
Object type
Payload
Rocket body
Debris
Shape & HBR
Trap Box + 2 Pan, 5 m
Radar Cross Section
2.957 m², Large (>1 m²)

Expand to show TLE details & history

TLE from 14 hours ago
0 ONEWEB-0090
1 45427U 20020D   25138.91111021 -.00000436  00000-0 -12652-2 0  9994
2 45427  87.8825  99.6484 0002031  84.3377 275.7983 13.11415919250991
Epoch: 2025-05-18T21:51Z
TLE epoch observation values (Epoch: 2025-05-18T21:51:59.922Z)
Latitude
0.00005°
Longitude
-105.18256°
Altitude
1,220.42 km
Speed
7.244 km/s
True Right ascension
06h 38m 35s
True Declination
0° 00' 00"
Sunlit
Object was in daylight at epoch
Visualization orbit readout
Latitude
-77.85144°
Longitude
84.53984°
Altitude
1,247.096 km
Speed
7.23 km/s
Apparent Right ascension
09h 30m 24s
Apparent Declination
-73° 12' 06"
Sunlit
Object is in daylight
Visualization observer readout
Local Sidereal Time
20:48:55
Azimuth
185.385° SSW
Elevation
-56.338°
Doppler factor
1
Orbital elements
Apogee altitude
1,216.347 km
Perigee altitude
1,213.263 km
Semi-major axis
7,592.942 km
Eccentricity
0.0002
Inclination
87.8825°
RAAN
99.6484°
Arg. of periapsis
84.3377°
True anomaly
Unknown
Mean anomaly
275.7983°
Eccentric anomaly
Unknown
Mean motion
3.28041 °/min
Orbital period
109.74 mins
BSTAR
-0.0012652
Loading maneuver chart data...
Loading SW <> Apogee altitude chart data...
Loading historical data...
Loading historical data...
Loading historical data...
Loading historical data...
Loading historical data...
Loading historical data...
Loading historical data...

ONEWEB-0090 Visibility forecast

Observer location: undefined°, undefined°

Span
Click to sort rows by Start time (UTC) header in descending order
Start Az.
Max El. time (UTC)
Max El. Az.
Max El.
End time (UTC)
End Az.
6 mins2025-05-19 20:00:44.954Z95.981° ESE2025-05-19 20:03:44.954Z70.212° E14.131°2025-05-19 20:06:44.954Z44.716° NE
13 mins2025-05-19 21:46:44.954Z177.403° S2025-05-19 21:52:44.954Z16.068° NNE44.801°2025-05-19 21:59:44.954Z1.216° NNE
6 mins2025-05-19 23:40:44.954Z265.282° W2025-05-19 23:43:44.954Z292.29° WNW14.843°2025-05-19 23:46:44.954Z317.879° NNW
12 mins2025-05-20 09:16:44.954Z6.366° NNE2025-05-20 09:21:44.954Z63.487° ENE43.267°2025-05-20 09:28:44.954Z171.539° S
8 mins2025-05-20 11:07:44.954Z319.226° NNW2025-05-20 11:10:44.954Z291.343° WNW18.727°2025-05-20 11:15:44.954Z245.816° WSW
|